sat.trackr.live / text

‹ back to catalog

STARLINK-37596

NORAD 69032 · 2026-101H

PAYLOAD ACTIVE UNKNOWN

§ Identity

Operator
Country
US
Launch date
2026-05-06
Launch site
AFWTR
Launch vehicle
Mass (kg)
RCS (m²)

Purposes: comms

External: N2YO · Heavens-Above · Gunter

§ Orbital elements

Epoch: 2026-09-20T01:00:53.923392Z

Period
93.91 min
Inclination
97.2839°
Eccentricity
0.0001684
Mean motion
15.33444973 rev/d
Perigee alt
464.4 km
Apogee alt
466.7 km
Semi-major
6,843.7 km
B*
3.9462e-4
RAAN
116.6077°
Arg perigee
96.1315°
Mean anomaly
264.0120°
Rev number
2,111

§ Raw data

STARLINK-375961 69032U 26101H   26263.04229078  .00012686  00000+0  39462-3 0  99902 69032  97.2839 116.6077 0001684  96.1315 264.0120 15.33444973 21115

JSON: /api/v1/satellites/69032 · /tle

For live sub-satellite position, see the globe view (requires WebGL).

§ Visibility from observer

Set your observer location to see the next 7 days of passes ≥ 10°. The values pass through the URL so the page stays shareable.

No JS? Fill the form by hand. The geolocation button needs JavaScript.